sat.trackr.live / text

‹ back to catalog

KUIPER-00066

NORAD 64526 · 2025-134AC

PAYLOAD ACTIVE UNKNOWN

§ Identity

Operator
Country
US
Launch date
2025-06-23
Launch site
AFETR
Launch vehicle
Mass (kg)
RCS (m²)

External: N2YO · Heavens-Above · Gunter

§ Orbital elements

Epoch: 2026-05-24T21:31:42.484800Z

Period
97.30 min
Inclination
51.9008°
Eccentricity
0.0000215
Mean motion
14.79934272 rev/d
Perigee alt
629.4 km
Apogee alt
629.7 km
Semi-major
7,007.7 km
B*
8.8953e-5
RAAN
201.0053°
Arg perigee
358.7282°
Mean anomaly
1.3679°
Rev number
5,213

§ Raw data

KUIPER-000661 64526U 25134AC  26144.89701950  .00000457  00000+0  88953-4 0  99962 64526  51.9008 201.0053 0000215 358.7282   1.3679 14.79934272 52137

JSON: /api/v1/satellites/64526 · /tle

For live sub-satellite position, see the globe view (requires WebGL).

§ Visibility from observer

Set your observer location to see the next 7 days of passes ≥ 10°. The values pass through the URL so the page stays shareable.

No JS? Fill the form by hand. The geolocation button needs JavaScript.